Wind_Speed
38 38 36 37 38 39 39 40 39 38 39 41 41 40 39 38 38 38 37 35 35 35 34 35 36 36 36 37 37 36 35 35 36 36 36 36 37 37 37 38 38 38 39 39
40 40 38 39 39 40 40 41 40 39 40 41 41 41 39 38 39 38 36 35 35 35 36 37 38 39 39 39 39 39 39 38 38 39 39 40 41 41 42 42 42 43 43 43
40 40 38 38 38 38 38 38 39 39 39 41 42 42 38 39 39 39 39 39 39 39 39 39 39 40 40 41 41 41 41 41 41 41 42 43 44 45 46 47 47 48 48 49
38 36 36 36 36 36 36 37 38 39 40 41 43 45 41 42 42 42 43 43 44 44 43 42 41 41 42 42 43 44 44 45 46 46 46 47 47 48 49 50 51 52 52 53
37 36 35 35 35 37 36 38 39 40 42 45 43 46 46 46 45 46 47 47 47 47 47 47 46 45 45 44 45 45 46 48 49 49 50 51 52 53 53 54 55 56 57 58
38 37 36 36 37 37 39 39 41 42 43 46 44 47 48 49 49 49 49 49 49 49 49 49 49 49 48 47 47 46 47 49 50 52 53 55 57 58 59 60 61 62 63 63
39 39 38 38 39 39 40 41 43 45 46 47 47 49 50 50 50 51 52 51 51 51 51 51 51 51 51 51 50 50 50 51 53 55 57 59 62 63 65 66 67 68 69 69
41 40 39 40 40 41 42 43 44 47 49 50 51 53 53 53 53 53 53 53 53 53 54 54 54 54 54 55 55 55 56 56 58 59 61 63 66 68 70 72 73 74 75 75
42 42 42 42 42 43 45 46 47 51 53 55 55 56 56 55 54 54 55 55 55 56 56 57 57 57 58 59 60 60 61 62 63 64 66 68 70 72 74 76 78 79 80 80
43 45 46 45 46 47 48 49 52 54 57 58 57 56 55 54 55 55 56 57 57 58 59 59 60 61 62 63 64 66 67 68 69 70 71 73 74 76 77 79 81 82 83 84
45 48 50 50 50 49 50 51 53 55 58 59 59 57 56 56 56 56 57 58 59 61 62 63 64 65 67 68 70 71 72 74 75 76 77 77 78 79 80 81 82 83 84 85
49 51 52 53 52 52 52 52 53 56 58 60 61 59 57 57 57 58 59 61 62 64 65 67 68 70 72 73 75 76 77 78 79 80 80 81 82 83 84 85 86 87 88 88
51 53 53 54 54 52 52 52 54 57 59 61 62 61 57 58 59 60 62 64 65 67 68 70 71 73 75 77 78 80 81 82 83 84 85 86 86 88 89 90 91 93 94 94
54 56 55 55 54 54 53 53 56 59 61 62 62 60 58 59 60 63 65 65 67 69 70 72 73 75 77 79 81 83 85 86 87 88 89 90 91 91 92 94 95 96 97 98
56 58 57 55 55 56 56 57 59 61 62 63 62 61 60 59 61 63 64 66 68 70 72 74 76 77 79 81 83 84 86 87 88 88 88 88 89 89 89 89 90 91 92 94
57 58 58 58 58 59 60 59 60 61 62 62 62 63 60 62 64 65 66 68 70 72 74 75 77 79 80 81 82 83 84 84 84 82 81 80 79 78 78 78 78 79 80 81
59 59 59 59 59 62 63 58 58 61 62 62 63 63 62 64 65 67 68 70 72 73 75 77 79 80 80 80 80 79 78 77 74 72 70 68 68 68 68 69 70 71 72 73
59 58 60 61 61 65 61 58 60 61 61 62 64 64 65 67 69 70 71 72 74 75 77 78 78 78 77 75 73 71 68 66 64 63 63 63 65 66 68 69 71 72 73 73
57 58 61 62 65 67 60 59 60 63 64 63 64 66 68 70 71 71 72 74 75 76 77 76 75 73 70 66 64 62 61 61 61 62 63 64 66 68 69 71 72 73 73 72
58 59 61 64 67 67 59 59 61 64 65 62 65 67 69 70 71 71 73 75 75 75 74 71 67 64 61 59 58 59 59 60 61 62 64 66 68 69 70 71 71 71 70 68
57 59 60 62 65 65 59 60 62 63 64 65 66 67 69 70 71 73 74 74 73 70 66 62 58 56 55 55 56 57 58 59 61 62 64 66 68 69 69 69 68 67 64 61
58 59 60 61 64 62 59 62 62 63 65 67 68 69 71 72 73 73 73 71 67 62 58 54 52 52 52 54 55 56 57 59 60 61 63 65 66 67 67 66 63 60 57 53
57 57 59 62 63 63 64 64 64 66 68 69 70 71 72 73 73 71 69 63 58 54 51 50 50 51 52 54 54 56 57 58 59 61 62 63 63 64 63 61 57 52 49 46
55 56 61 63 63 64 66 66 67 68 69 69 70 71 71 71 69 66 60 55 52 50 49 49 50 52 53 54 55 56 57 58 60 61 61 61 60 60 59 56 51 46 43 42
55 58 62 65 64 66 67 68 68 69 69 69 69 68 67 65 62 57 53 50 49 48 49 49 51 52 54 55 56 57 58 59 60 60 59 58 57 56 54 49 45 42 41 40
56 60 64 66 64 67 67 67 67 67 67 65 64 63 60 57 54 52 50 48 48 48 48 50 51 53 55 56 58 58 59 59 58 57 56 55 53 52 48 43 39 39 39 39
Wind_Direction
280 281 282 281 281 282 284 284 286 287 287 288 289 290 291 291 289 288 288 288 288 287 286 285 284 283 283 282 282 281 278 276 274 272 270 268 267 265 263 261 261 261 262 262
280 280 280 279 280 281 282 284 286 287 287 288 289 289 291 291 290 291 291 290 288 286 284 284 283 282 281 280 279 278 277 275 273 271 269 268 267 266 264 262 261 260 260 261
277 279 279 278 278 279 281 283 284 285 286 287 288 289 291 291 291 292 292 291 289 287 285 283 282 281 280 279 278 277 276 275 273 270 268 267 266 266 265 264 263 261 260 260
275 276 277 278 278 279 281 282 283 284 285 286 288 290 291 290 291 291 292 292 292 291 290 289 286 284 282 281 279 278 277 276 275 273 271 268 267 267 266 265 264 263 262 261
275 275 276 277 279 280 281 281 282 283 284 285 287 289 290 291 292 293 294 295 295 295 295 294 293 291 288 285 283 280 278 277 275 274 272 271 269 268 267 266 265 265 264 263
275 276 277 278 278 279 280 281 281 281 282 283 287 287 288 290 292 294 294 293 293 293 292 292 291 290 289 286 284 281 278 276 274 272 270 269 269 268 267 266 266 265 264 264
274 275 277 277 278 279 280 281 282 282 282 283 284 284 285 288 289 290 290 290 289 289 288 288 287 287 286 285 283 281 278 275 273 270 268 268 268 268 267 267 267 267 266 265
275 276 277 277 278 279 280 280 281 282 282 283 283 284 286 287 287 286 286 285 285 285 285 285 285 285 284 284 283 281 279 277 274 271 269 267 266 267 267 266 267 267 268 267
277 276 276 276 277 278 279 280 279 278 279 279 280 283 284 284 283 281 281 281 281 281 281 282 282 283 283 283 282 281 280 278 275 273 271 269 268 267 267 266 266 266 266 267
277 277 278 279 279 279 279 279 278 277 278 278 280 282 283 281 280 279 279 279 279 279 279 280 281 281 282 281 280 279 279 278 277 276 274 273 272 271 270 269 268 267 267 267
275 277 279 280 282 281 280 279 279 277 276 277 279 282 283 282 281 279 278 278 278 278 279 279 280 280 280 280 280 280 280 279 279 278 277 276 275 274 273 272 271 270 269 268
277 278 279 281 281 280 280 280 278 276 277 276 276 279 282 279 278 277 276 276 276 277 277 278 279 279 280 281 281 282 282 282 281 281 280 279 278 277 276 274 273 272 271 271
279 279 280 280 281 281 279 279 277 275 273 273 275 279 281 278 276 275 275 276 277 277 278 280 281 282 283 283 284 284 284 284 284 283 282 281 279 278 277 275 274 273 272 271
279 280 280 281 280 278 278 277 275 273 272 274 275 278 278 278 277 277 277 279 280 282 283 284 285 286 286 286 287 287 286 286 285 284 283 282 281 279 278 277 275 274 273 272
278 278 279 277 276 275 276 277 275 274 275 275 277 277 278 278 278 279 281 282 284 285 286 287 288 288 288 288 288 287 287 286 286 285 284 283 283 282 281 280 279 278 277 276
275 275 275 274 274 273 273 276 275 275 276 277 277 277 278 278 280 282 284 285 286 287 288 289 289 290 290 289 289 288 287 286 286 286 285 285 285 285 284 284 283 283 282 281
273 274 273 273 272 271 273 279 275 274 274 275 277 279 279 281 282 284 285 287 288 289 290 291 292 292 292 291 289 288 287 287 287 287 287 288 288 288 288 288 287 286 286 285
272 272 272 271 271 270 279 276 273 274 274 275 277 280 281 283 284 286 289 290 291 293 294 294 294 292 291 289 288 287 287 287 288 289 290 290 291 291 291 291 291 291 290 289
271 271 271 271 271 273 276 278 277 275 274 277 280 282 283 286 288 291 292 293 294 295 295 294 292 291 289 288 287 286 287 288 289 290 291 292 293 293 293 293 293 293 292 291
269 269 270 271 273 275 280 276 275 276 278 280 281 283 286 288 291 293 294 295 295 294 293 292 290 288 287 286 286 286 287 288 290 291 292 293 294 294 294 294 295 295 295 294
268 268 269 272 273 276 279 279 278 279 283 282 283 286 287 290 292 293 294 295 294 294 292 290 287 285 284 284 285 286 288 290 291 292 293 294 295 295 296 297 297 298 298 297
267 268 270 272 274 278 279 278 281 284 284 286 287 289 290 292 294 294 294 294 293 291 289 287 285 284 284 285 286 288 290 291 293 294 295 295 296 297 298 299 300 300 299 298
267 270 271 271 274 277 278 281 283 284 286 287 289 291 292 293 293 293 293 293 291 289 287 285 284 284 285 286 288 290 292 293 295 296 296 297 298 299 300 301 301 300 299 299
268 269 271 273 275 277 279 281 283 285 286 288 289 290 291 291 292 292 291 290 288 287 286 285 285 285 286 287 289 291 294 295 296 297 297 297 298 299 301 302 300 299 299 300
269 271 273 274 277 278 279 282 284 286 287 288 289 290 290 290 290 290 289 288 287 286 285 284 284 285 287 289 291 293 295 296 297 297 297 297 298 300 301 300 299 299 300 303
272 274 275 277 278 279 281 282 284 286 287 288 287 287 287 288 288 288 287 287 285 285 284 284 285 287 289 291 293 295 296 296 296 296 297 297 298 300 299 296 296 300 303 306
Height
5818 5819 5819 5819 5817 5816 5815 5814 5814 5815 5813 5811 5810 5810 5810 5809 5807 5806 5806 5805 5804 5802 5800 5799 5797 5796 5795 5794 5792 5791 5790 5790 5789 5788 5787 5786 5785 5784 5784 5783 5782 5781 5780 5780
5809 5809 5811 5809 5808 5807 5806 5805 5805 5804 5803 5801 5800 5799 5799 5798 5796 5795 5795 5794 5793 5792 5791 5790 5788 5787 5786 5784 5783 5782 5780 5779 5778 5777 5776 5775 5774 5773 5773 5772 5771 5770 5769 5768
5799 5800 5799 5799 5798 5797 5796 5796 5795 5794 5793 5791 5789 5789 5790 5788 5786 5785 5784 5783 5782 5781 5781 5780 5779 5777 5776 5775 5773 5772 5770 5769 5767 5766 5765 5764 5762 5761 5760 5759 5758 5757 5756 5756
5789 5790 5789 5788 5788 5787 5787 5786 5785 5784 5782 5781 5780 5778 5781 5778 5777 5775 5773 5771 5770 5768 5768 5767 5766 5766 5765 5763 5762 5761 5759 5757 5755 5754 5752 5751 5749 5748 5746 5745 5744 5743 5742 5741
5780 5780 5780 5779 5779 5778 5777 5776 5775 5774 5772 5771 5770 5768 5769 5766 5765 5763 5761 5758 5756 5754 5753 5752 5751 5750 5750 5749 5748 5747 5746 5744 5742 5740 5738 5736 5735 5733 5732 5730 5729 5727 5726 5725
5769 5769 5769 5770 5769 5768 5767 5766 5764 5763 5762 5761 5762 5759 5758 5755 5754 5751 5748 5746 5744 5741 5739 5738 5736 5734 5733 5732 5732 5731 5729 5728 5727 5725 5723 5720 5719 5717 5715 5713 5712 5710 5709 5707
5759 5759 5759 5759 5758 5757 5756 5755 5753 5751 5751 5751 5750 5748 5748 5746 5744 5740 5737 5734 5731 5728 5726 5724 5722 5720 5718 5716 5715 5713 5712 5711 5709 5708 5706 5703 5701 5699 5697 5694 5693 5691 5690 5688
5748 5749 5748 5748 5747 5746 5745 5744 5743 5740 5738 5738 5736 5735 5737 5735 5732 5728 5725 5721 5718 5715 5712 5710 5707 5705 5702 5700 5698 5696 5694 5692 5690 5689 5687 5685 5682 5680 5677 5675 5672 5670 5668 5667
5735 5736 5736 5736 5735 5734 5733 5732 5730 5726 5724 5723 5724 5723 5723 5722 5719 5715 5712 5709 5705 5702 5699 5696 5693 5690 5687 5683 5681 5678 5675 5673 5671 5669 5667 5664 5662 5659 5656 5653 5651 5649 5646 5644
5722 5722 5723 5722 5722 5721 5721 5719 5715 5711 5708 5706 5708 5710 5709 5708 5704 5701 5699 5695 5691 5688 5684 5681 5678 5674 5670 5666 5663 5659 5656 5653 5650 5647 5645 5642 5640 5637 5634 5631 5629 5626 5623 5621
5711 5709 5709 5709 5708 5708 5706 5704 5700 5696 5692 5690 5689 5696 5694 5691 5689 5686 5683 5679 5676 5672 5669 5665 5662 5658 5653 5648 5644 5640 5636 5633 5629 5626 5623 5620 5617 5614 5611 5608 5605 5602 5599 5597
5697 5695 5695 5695 5694 5692 5691 5689 5686 5681 5677 5674 5671 5679 5679 5676 5672 5669 5666 5663 5659 5656 5652 5649 5645 5640 5635 5630 5625 5620 5616 5611 5607 5603 5600 5597 5594 5590 5587 5583 5580 5577 5574 5572
5682 5679 5679 5678 5679 5678 5676 5675 5670 5665 5661 5658 5656 5662 5662 5660 5655 5651 5648 5645 5642 5638 5634 5630 5626 5621 5615 5610 5604 5599 5594 5589 5584 5580 5576 5572 5569 5565 5561 5557 5553 5550 5548 5545
5665 5663 5664 5664 5661 5660 5660 5659 5654 5648 5644 5642 5643 5645 5645 5640 5636 5633 5630 5627 5623 5619 5615 5610 5606 5601 5595 5589 5583 5577 5571 5565 5560 5555 5550 5545 5541 5537 5532 5528 5524 5521 5518 5515
5648 5646 5646 5646 5644 5642 5643 5643 5637 5632 5630 5627 5628 5627 5629 5624 5617 5615 5613 5609 5605 5600 5595 5590 5585 5579 5573 5567 5561 5554 5547 5541 5535 5530 5524 5519 5514 5509 5504 5499 5495 5491 5488 5485
5631 5630 5629 5629 5628 5624 5625 5628 5622 5618 5615 5611 5608 5609 5612 5605 5601 5598 5595 5591 5587 5581 5576 5570 5564 5557 5551 5544 5537 5530 5523 5517 5511 5506 5501 5495 5490 5485 5479 5475 5471 5467 5463 5459
5614 5613 5612 5612 5610 5605 5607 5616 5610 5604 5601 5597 5592 5593 5590 5588 5584 5581 5577 5573 5567 5562 5556 5549 5542 5534 5527 5520 5513 5507 5500 5494 5489 5484 5480 5475 5470 5464 5459 5454 5449 5445 5440 5436
5598 5596 5593 5591 5591 5586 5599 5597 5593 5587 5586 5582 5577 5575 5571 5568 5565 5562 5557 5552 5546 5540 5534 5527 5519 5512 5505 5497 5491 5486 5480 5475 5471 5466 5462 5457 5451 5446 5440 5435 5429 5423 5418 5413
5581 5579 5575 5572 5568 5567 5581 5580 5573 5567 5567 5569 5561 5557 5552 5548 5545 5543 5536 5530 5525 5519 5512 5505 5498 5491 5484 5478 5473 5468 5464 5460 5455 5450 5445 5439 5433 5428 5422 5415 5409 5402 5396 5390
5564 5562 5559 5555 5550 5550 5564 5560 5553 5547 5547 5552 5543 5539 5535 5530 5528 5525 5516 5511 5505 5498 5491 5484 5478 5472 5467 5462 5457 5453 5449 5444 5440 5435 5429 5422 5415 5409 5402 5396 5389 5381 5374 5368
5548 5545 5542 5539 5532 5533 5545 5537 5532 5531 5532 5527 5525 5521 5517 5513 5510 5505 5497 5490 5484 5477 5471 5466 5460 5456 5451 5447 5442 5438 5434 5429 5424 5418 5412 5405 5397 5390 5383 5376 5368 5361 5354 5348
5531 5530 5527 5523 5517 5523 5524 5515 5515 5513 5508 5506 5504 5501 5497 5494 5489 5484 5477 5471 5465 5459 5454 5449 5445 5440 5436 5432 5428 5424 5419 5414 5409 5402 5395 5388 5380 5372 5364 5358 5350 5343 5336 5330
5516 5517 5511 5507 5507 5505 5500 5498 5496 5492 5489 5486 5483 5480 5476 5473 5469 5463 5458 5453 5447 5442 5438 5434 5430 5425 5421 5417 5413 5408 5404 5398 5392 5385 5378 5371 5363 5356 5348 5341 5334 5328 5322 5316
5501 5500 5494 5490 5491 5488 5481 5479 5477 5472 5469 5467 5463 5460 5456 5452 5448 5444 5440 5436 5432 5428 5423 5419 5415 5410 5406 5402 5397 5392 5387 5382 5376 5369 5362 5355 5348 5341 5334 5326 5320 5315 5309 5304
5487 5484 5478 5472 5473 5467 5464 5462 5458 5453 5449 5446 5443 5439 5436 5431 5429 5426 5423 5420 5416 5413 5409 5404 5400 5395 5391 5386 5381 5376 5371 5365 5359 5352 5346 5339 5333 5326 5320 5314 5308 5303 5298 5291
5475 5468 5460 5454 5454 5446 5446 5446 5441 5435 5432 5428 5423 5420 5417 5414 5412 5410 5407 5404 5401 5397 5394 5389 5385 5380 5375 5370 5364 5359 5354 5348 5342 5336 5330 5325 5319 5313 5307 5302 5299 5292 5287 5281